• In Uzbekistan
  • List of Countries
  • For 7 days
  • Water Temperature
  • Satellite Maps
  • Weather Map
  • Weather Widgets
  • user-avatar
    Login

    Hourly Weather Newcastle

    Today, 19 November, Sunday

    Time Temperature Precipitation Wind Pressure Humidity
    00:00 +1°C° 0 mm 1 mps 749 mmHg 79%
    01:00 +1°C° 0 mm 1 mps 749 mmHg 78%
    02:00 -1°C° 0 mm 2 mps 748 mmHg 78%
    03:00 -1°C° 0 mm 2 mps 747 mmHg 78%
    04:00 +1°C° 0 mm 2 mps 747 mmHg 78%
    05:00 +1°C° 0 mm 2 mps 746 mmHg 77%
    06:00 0°C° 0.4 mm 3 mps 745 mmHg 81%
    07:00 +1°C° 0.4 mm 3 mps 744 mmHg 84%
    08:00 +1°C° 0 mm 5 mps 743 mmHg 89%
    09:00 +2°C° 1.6 mm 5 mps 741 mmHg 91%
    10:00 +3°C° 1.6 mm 5 mps 740 mmHg 93%
    11:00 +5°C° 1.6 mm 5 mps 738 mmHg 95%
    12:00 +7°C° 2.4 mm 5 mps 737 mmHg 95%
    13:00 +8°C° 2.4 mm 5 mps 735 mmHg 95%
    14:00 +10°C° 2.4 mm 5 mps 734 mmHg 95%
    15:00 +12°C° 0.5 mm 5 mps 733 mmHg 94%
    16:00 +12°C° 0.5 mm 5 mps 731 mmHg 94%
    17:00 +13°C° 0.5 mm 5 mps 730 mmHg 93%
    18:00 +12°C° 0.3 mm 5 mps 730 mmHg 92%
    19:00 +11°C° 0.3 mm 6 mps 730 mmHg 91%
    20:00 +10°C° 0.3 mm 6 mps 730 mmHg 90%
    21:00 +7°C° 0.1 mm 6 mps 731 mmHg 87%
    22:00 +4°C° 0.1 mm 6 mps 732 mmHg 84%
    23:00 +1°C° 0.1 mm 6 mps 733 mmHg 81%

    Tomorrow, 20 November, Monday

    Time Temperature Precipitation Wind Pressure Humidity
    00:00 +1°C° 0 mm 6 mps 734 mmHg 80%
    01:00 -1°C° 0 mm 6 mps 735 mmHg 80%
    02:00 -1°C° 0 mm 5 mps 736 mmHg 79%
    03:00 -2°C° 0 mm 5 mps 737 mmHg 79%
    04:00 -2°C° 0 mm 5 mps 737 mmHg 79%
    05:00 -3°C° 0 mm 4 mps 738 mmHg 79%
    06:00 -3°C° 0 mm 4 mps 739 mmHg 78%
    07:00 -3°C° 0 mm 4 mps 740 mmHg 77%
    08:00 -5°C° 0 mm 5 mps 740 mmHg 76%
    09:00 -4°C° 0 mm 5 mps 741 mmHg 72%
    10:00 -4°C° 0 mm 5 mps 741 mmHg 68%
    11:00 -4°C° 0 mm 5 mps 742 mmHg 64%
    12:00 -4°C° 0 mm 6 mps 742 mmHg 62%
    13:00 -4°C° 0 mm 6 mps 742 mmHg 60%
    14:00 -4°C° 0 mm 6 mps 742 mmHg 58%
    15:00 -4°C° 0 mm 5 mps 743 mmHg 59%
    16:00 -5°C° 0 mm 5 mps 744 mmHg 60%
    17:00 -5°C° 0 mm 5 mps 745 mmHg 61%
    18:00 -6°C° 0 mm 5 mps 745 mmHg 61%
    19:00 -6°C° 0 mm 5 mps 746 mmHg 61%
    20:00 -7°C° 0 mm 5 mps 747 mmHg 61%
    21:00 -7°C° 0 mm 5 mps 748 mmHg 60%
    22:00 -8°C° 0 mm 5 mps 749 mmHg 58%
    23:00 -8°C° 0 mm 5 mps 749 mmHg 57%

    Day after tomorrow, 21 November, Tuesday

    Time Temperature Precipitation Wind Pressure Humidity
    00:00 -8°C° 0 mm 5 mps 750 mmHg 56%
    01:00 -8°C° 0 mm 5 mps 751 mmHg 55%
    02:00 -10°C° 0 mm 5 mps 751 mmHg 54%
    03:00 -10°C° 0 mm 5 mps 752 mmHg 54%
    04:00 -10°C° 0 mm 5 mps 753 mmHg 54%
    05:00 -10°C° 0 mm 5 mps 753 mmHg 54%
    06:00 -9°C° 0 mm 4 mps 754 mmHg 55%
    07:00 -9°C° 0 mm 4 mps 755 mmHg 55%
    08:00 -8°C° 0 mm 4 mps 756 mmHg 55%
    09:00 -7°C° 0 mm 4 mps 756 mmHg 51%
    10:00 -5°C° 0 mm 4 mps 756 mmHg 48%
    11:00 -4°C° 0 mm 4 mps 756 mmHg 45%
    12:00 -2°C° 0 mm 4 mps 756 mmHg 47%
    13:00 -1°C° 0 mm 4 mps 756 mmHg 49%
    14:00 +1°C° 0 mm 4 mps 755 mmHg 51%
    15:00 +1°C° 0 mm 3 mps 755 mmHg 59%
    16:00 +1°C° 0 mm 2 mps 755 mmHg 67%
    17:00 -1°C° 0 mm 2 mps 755 mmHg 75%
    18:00 -1°C° 0 mm 2 mps 755 mmHg 79%
    19:00 -1°C° 0 mm 2 mps 756 mmHg 84%
    20:00 -1°C° 0 mm 2 mps 756 mmHg 89%
    21:00 -1°C° 0 mm 2 mps 756 mmHg 90%
    22:00 -1°C° 0 mm 2 mps 756 mmHg 91%
    23:00 -1°C° 0 mm 2 mps 755 mmHg 92%

    22 November, Wednesday

    Time Temperature Precipitation Wind Pressure Humidity
    00:00 -1°C° 0 mm 2 mps 755 mmHg 93%
    01:00 -1°C° 0 mm 2 mps 755 mmHg 93%
    02:00 -1°C° 0 mm 2 mps 755 mmHg 93%
    03:00 -1°C° 0 mm 2 mps 755 mmHg 94%
    04:00 +1°C° 0 mm 2 mps 755 mmHg 94%
    05:00 +1°C° 0 mm 2 mps 755 mmHg 95%
    06:00 0°C° 0 mm 3 mps 755 mmHg 95%
    07:00 0°C° 0 mm 3 mps 755 mmHg 95%
    08:00 0°C° 0 mm 3 mps 755 mmHg 95%
    09:00 +2°C° 0 mm 3 mps 754 mmHg 88%
    10:00 +4°C° 0 mm 3 mps 754 mmHg 81%
    11:00 +6°C° 0 mm 4 mps 753 mmHg 75%
    12:00 +7°C° 0.1 mm 3 mps 753 mmHg 77%
    13:00 +8°C° 0.1 mm 3 mps 752 mmHg 79%
    14:00 +8°C° 0.1 mm 2 mps 751 mmHg 81%
    15:00 +7°C° 1.3 mm 2 mps 751 mmHg 86%
    16:00 +7°C° 1.3 mm 1 mps 750 mmHg 92%
    17:00 +6°C° 1.3 mm 1 mps 750 mmHg 97%
    18:00 +6°C° 1.3 mm 1 mps 750 mmHg 97%
    19:00 +5°C° 1.3 mm 2 mps 749 mmHg 96%
    20:00 +4°C° 1.3 mm 2 mps 749 mmHg 96%
    21:00 +4°C° 0.5 mm 2 mps 749 mmHg 93%
    22:00 +2°C° 0.5 mm 3 mps 749 mmHg 91%
    23:00 +2°C° 0.5 mm 3 mps 749 mmHg 89%

    23 November, Thursday

    Time Temperature Precipitation Wind Pressure Humidity
    00:00 +1°C° 0 mm 3 mps 749 mmHg 88%
    01:00 -1°C° 0 mm 4 mps 749 mmHg 87%
    02:00 -2°C° 0 mm 4 mps 749 mmHg 85%
    03:00 -3°C° 0 mm 4 mps 749 mmHg 83%
    04:00 -5°C° 0 mm 5 mps 749 mmHg 81%
    05:00 -5°C° 0 mm 5 mps 750 mmHg 79%
    06:00 -6°C° 0 mm 5 mps 750 mmHg 78%
    07:00 -6°C° 0 mm 5 mps 750 mmHg 77%
    08:00 -6°C° 0 mm 5 mps 751 mmHg 75%
    09:00 -6°C° 0 mm 5 mps 751 mmHg 71%
    10:00 -5°C° 0 mm 5 mps 751 mmHg 67%
    11:00 -4°C° 0 mm 5 mps 752 mmHg 63%
    12:00 -4°C° 0 mm 5 mps 752 mmHg 61%
    13:00 -3°C° 0 mm 4 mps 752 mmHg 60%
    14:00 -2°C° 0 mm 4 mps 752 mmHg 58%
    15:00 -2°C° 0 mm 3 mps 752 mmHg 62%
    16:00 -4°C° 0 mm 3 mps 752 mmHg 66%
    17:00 -4°C° 0 mm 2 mps 753 mmHg 70%
    18:00 -4°C° 0 mm 2 mps 753 mmHg 70%
    19:00 -4°C° 0 mm 2 mps 753 mmHg 71%
    20:00 -4°C° 0 mm 2 mps 754 mmHg 71%
    21:00 -4°C° 0 mm 2 mps 753 mmHg 71%
    22:00 -4°C° 0 mm 2 mps 753 mmHg 71%
    23:00 -4°C° 0 mm 2 mps 753 mmHg 70%

    24 November, Friday

    Time Temperature Precipitation Wind Pressure Humidity
    00:00 -4°C° 0 mm 2 mps 753 mmHg 70%
    01:00 -3°C° 0 mm 2 mps 753 mmHg 71%
    02:00 -3°C° 0 mm 2 mps 752 mmHg 71%
    03:00 -3°C° 0 mm 2 mps 752 mmHg 70%
    04:00 -3°C° 0 mm 2 mps 752 mmHg 69%
    05:00 -3°C° 0 mm 2 mps 751 mmHg 69%
    06:00 -3°C° 0 mm 2 mps 751 mmHg 69%
    07:00 -3°C° 0 mm 2 mps 750 mmHg 69%
    08:00 -3°C° 0 mm 2 mps 750 mmHg 69%
    09:00 -2°C° 0 mm 3 mps 749 mmHg 66%
    10:00 0°C° 0 mm 3 mps 749 mmHg 62%
    11:00 0°C° 0 mm 4 mps 748 mmHg 59%
    12:00 +1°C° 0 mm 4 mps 748 mmHg 58%
    13:00 +1°C° 0 mm 4 mps 747 mmHg 57%
    14:00 +3°C° 0 mm 4 mps 747 mmHg 56%
    15:00 0°C° 0.1 mm 5 mps 747 mmHg 58%
    16:00 -4°C° 0.1 mm 5 mps 748 mmHg 59%
    17:00 -6°C° 0.1 mm 6 mps 748 mmHg 60%
    18:00 -8°C° 0 mm 6 mps 749 mmHg 59%
    19:00 -8°C° 0 mm 5 mps 750 mmHg 57%
    20:00 -10°C° 0 mm 5 mps 751 mmHg 56%
    21:00 -10°C° 0 mm 5 mps 751 mmHg 55%
    22:00 -10°C° 0 mm 5 mps 751 mmHg 55%
    23:00 -10°C° 0 mm 5 mps 752 mmHg 54%
    Show more